Powrót do katalogu

OPS 4682 DEB

AktywnyPO
NORAD 38448·DEBRIS·🇺🇸 United States

Wystrzelony Apr 3, 1965 z Vandenberg Space Force Base

Loading…

Następne Przeloty (najbliższe 24 godziny)

TLE

ŚwieżeSource: Space-Track

Epoka: Sep 12, 2026, 18:32 UTC

1 38448U 65027FD  26255.77285951  .00000856  00000-0  28011-2 0  9994
2 38448  90.2467   8.6362 0028495  13.7132 346.4759 13.00368960565748

Śledź OPS 4682 DEB w czasie rzeczywistym z AllMySat

Download on the App Store